WZZ4D1 UKBB-LUKK

Flight info

Callsign WZZ4D1
Flight time 0h 43m
Altitude 36000
Route BASOR M856 SULUM N145 LAVDA Z888 MURKA
Aircraft A20N/M-V/N

Departure

Time 2026-04-27 20:33
Airport Boryspil International Airport (UKBB)

Arrival

Time 2026-04-27 21:17
Airport Chişinău International Airport (LUKK)
Time Latitude Longitude Altitude Speed Heading
2026-04-27 20:25 50.33683 30.88617 409 ft 0 kts 92°
2026-04-27 20:29 50.33683 30.88631 409 ft 3 kts 92°
2026-04-27 20:29 50.33678 30.88695 409 ft 8 kts 114°
2026-04-27 20:29 50.33623 30.88689 409 ft 13 kts 254°
2026-04-27 20:29 50.33629 30.88515 409 ft 18 kts 270°
2026-04-27 20:30 50.33573 30.88385 408 ft 17 kts 185°
2026-04-27 20:30 50.33443 30.88369 405 ft 20 kts 185°
2026-04-27 20:30 50.33294 30.88365 404 ft 22 kts 183°
2026-04-27 20:30 50.33120 30.88345 402 ft 26 kts 185°
2026-04-27 20:31 50.32944 30.88339 400 ft 25 kts 184°
2026-04-27 20:31 50.32769 30.88328 398 ft 25 kts 182°
2026-04-27 20:31 50.32594 30.88314 396 ft 29 kts 183°
2026-04-27 20:31 50.32374 30.88300 395 ft 30 kts 182°
2026-04-27 20:32 50.32169 30.88281 395 ft 26 kts 184°
2026-04-27 20:32 50.32074 30.88207 394 ft 16 kts 266°
2026-04-27 20:32 50.32080 30.88025 393 ft 17 kts 275°
2026-04-27 20:32 50.32162 30.87938 393 ft 16 kts
2026-04-27 20:33 50.32371 30.87954 395 ft 62 kts
2026-04-27 20:33 50.33041 30.88005 399 ft 128 kts
2026-04-27 20:33 50.34092 30.88081 590 ft 165 kts
2026-04-27 20:33 50.35234 30.88226 1240 ft 168 kts
2026-04-27 20:34 50.36361 30.88416 2071 ft 165 kts 360°
2026-04-27 20:34 50.37471 30.88581 2762 ft 166 kts 358°
2026-04-27 20:34 50.38689 30.88680 3215 ft 182 kts 356°
2026-04-27 20:34 50.40010 30.88734 3647 ft 201 kts 356°
2026-04-27 20:35 50.41470 30.88794 4065 ft 223 kts 359°
2026-04-27 20:35 50.43032 30.89498 4562 ft 253 kts 30°
2026-04-27 20:35 50.44160 30.91752 5289 ft 277 kts 66°
2026-04-27 20:35 50.44302 30.94776 6191 ft 290 kts 100°
2026-04-27 20:36 50.43386 30.97564 7061 ft 297 kts 134°
2026-04-27 20:36 50.41661 30.99254 7859 ft 296 kts 169°
2026-04-27 20:36 50.39673 30.99292 8661 ft 285 kts 204°
2026-04-27 20:36 50.38019 30.97823 9518 ft 273 kts 226°
2026-04-27 20:37 50.36499 30.96014 10356 ft 281 kts 221°
2026-04-27 20:37 50.34788 30.94408 10905 ft 299 kts 216°
2026-04-27 20:37 50.32861 30.92934 11316 ft 319 kts 212°
2026-04-27 20:37 50.30788 30.91535 11682 ft 339 kts 208°
2026-04-27 20:38 50.28492 30.90288 12013 ft 361 kts 204°
2026-04-27 20:38 50.25988 30.89308 12318 ft 382 kts 198°
2026-04-27 20:38 50.23323 30.88517 12652 ft 398 kts 197°
2026-04-27 20:38 50.20555 30.87741 13235 ft 404 kts 197°
2026-04-27 20:39 50.17789 30.86968 13876 ft 409 kts 197°
2026-04-27 20:39 50.15004 30.86179 14517 ft 412 kts 197°
2026-04-27 20:39 50.12180 30.85372 15126 ft 416 kts 198°
2026-04-27 20:39 50.09301 30.84542 15706 ft 421 kts 198°
2026-04-27 20:40 50.06430 30.83713 16262 ft 425 kts 198°
2026-04-27 20:40 50.03529 30.82877 16827 ft 429 kts 198°
2026-04-27 20:40 50.00558 30.82022 17376 ft 433 kts 198°
2026-04-27 20:40 49.97590 30.81168 17901 ft 437 kts 198°
2026-04-27 20:41 49.94629 30.80318 18395 ft 441 kts 198°
2026-04-27 20:41 49.91594 30.79448 18889 ft 446 kts 198°
2026-04-27 20:41 49.88532 30.78570 19418 ft 449 kts 198°
2026-04-27 20:41 49.85462 30.77692 19909 ft 452 kts 198°
2026-04-27 20:42 49.82357 30.76807 20402 ft 455 kts 198°
2026-04-27 20:42 49.79235 30.75916 20883 ft 458 kts 198°
2026-04-27 20:42 49.76132 30.75032 21345 ft 461 kts 198°
2026-04-27 20:42 49.72947 30.74127 21792 ft 464 kts 198°
2026-04-27 20:43 49.69791 30.73232 22221 ft 467 kts 198°
2026-04-27 20:43 49.66571 30.72321 22634 ft 470 kts 198°
2026-04-27 20:43 49.63364 30.71413 23048 ft 473 kts 198°
2026-04-27 20:43 49.60119 30.70482 23484 ft 473 kts 199°
2026-04-27 20:44 49.57048 30.69025 23855 ft 465 kts 210°
2026-04-27 20:44 49.54241 30.66723 24229 ft 455 kts 221°
2026-04-27 20:44 49.51789 30.63727 24596 ft 448 kts 230°
2026-04-27 20:44 49.49479 30.60441 24941 ft 449 kts 230°
2026-04-27 20:45 49.47235 30.57206 25316 ft 450 kts 230°
2026-04-27 20:45 49.44931 30.53897 25779 ft 449 kts 230°
2026-04-27 20:45 49.42682 30.50685 26242 ft 447 kts 230°
2026-04-27 20:45 49.40411 30.47457 26677 ft 446 kts 230°
2026-04-27 20:46 49.38141 30.44241 27104 ft 445 kts 229°
2026-04-27 20:46 49.35848 30.41002 27530 ft 445 kts 229°
2026-04-27 20:46 49.33593 30.37824 27938 ft 444 kts 229°
2026-04-27 20:46 49.31332 30.34641 28350 ft 443 kts 228°
2026-04-27 20:47 49.29050 30.31432 28777 ft 443 kts 228°
2026-04-27 20:47 49.26805 30.28284 29204 ft 441 kts 228°
2026-04-27 20:47 49.24526 30.25096 29642 ft 440 kts 228°
2026-04-27 20:47 49.22275 30.21948 30047 ft 440 kts 228°
2026-04-27 20:48 49.20034 30.18819 30438 ft 439 kts 228°
2026-04-27 20:48 49.17786 30.15686 30825 ft 439 kts 228°
2026-04-27 20:48 49.15538 30.12554 31211 ft 438 kts 228°
2026-04-27 20:48 49.13302 30.09443 31586 ft 437 kts 227°
2026-04-27 20:49 49.11039 30.06299 31936 ft 436 kts 227°
2026-04-27 20:49 49.08811 30.03207 32265 ft 436 kts 227°
2026-04-27 20:49 49.06570 30.00102 32580 ft 435 kts 227°
2026-04-27 20:49 49.04334 29.97006 32884 ft 435 kts 227°
2026-04-27 20:50 49.02117 29.93942 33182 ft 434 kts 227°
2026-04-27 20:50 48.99889 29.90867 33465 ft 434 kts 227°
2026-04-27 20:50 48.97664 29.87800 33746 ft 433 kts 227°
2026-04-27 20:50 48.95440 29.84739 34021 ft 433 kts 226°
2026-04-27 20:51 48.93043 29.81958 34252 ft 439 kts 217°
2026-04-27 20:51 48.90330 29.79692 34470 ft 443 kts 212°
2026-04-27 20:51 48.87580 29.77645 34654 ft 443 kts 211°
2026-04-27 20:51 48.84794 29.75601 34814 ft 444 kts 211°
2026-04-27 20:52 48.82019 29.73563 34966 ft 445 kts 211°
2026-04-27 20:52 48.79239 29.71515 35114 ft 446 kts 212°
2026-04-27 20:52 48.76465 29.69467 35273 ft 446 kts 212°
2026-04-27 20:52 48.73702 29.67425 35417 ft 447 kts 212°
2026-04-27 20:53 48.70910 29.65360 35562 ft 447 kts 212°
2026-04-27 20:53 48.68125 29.63302 35477 ft 448 kts 212°
2026-04-27 20:53 48.65326 29.61234 35578 ft 449 kts 212°
2026-04-27 20:53 48.62503 29.59149 35685 ft 450 kts 212°
2026-04-27 20:54 48.56871 29.54999 35895 ft 451 kts 212°
2026-04-27 20:54 48.54073 29.52940 35989 ft 452 kts 212°
2026-04-27 20:55 48.48421 29.48792 36126 ft 453 kts 212°
2026-04-27 20:55 48.42777 29.44657 36138 ft 454 kts 212°
2026-04-27 20:56 48.37078 29.40495 36119 ft 454 kts 212°
2026-04-27 20:56 48.34262 29.38439 35685 ft 459 kts 212°
2026-04-27 20:56 48.31415 29.36366 35223 ft 456 kts 212°
2026-04-27 20:56 48.28567 29.34295 34685 ft 453 kts 211°
2026-04-27 20:57 48.25738 29.32241 34039 ft 452 kts 211°
2026-04-27 20:57 48.22912 29.30189 33286 ft 454 kts 211°
2026-04-27 20:57 48.20065 29.28122 32482 ft 456 kts 211°
2026-04-27 20:57 48.17206 29.26049 31677 ft 458 kts 210°
2026-04-27 20:58 48.14375 29.24000 30882 ft 459 kts 210°
2026-04-27 20:58 48.11495 29.21923 29761 ft 456 kts 210°
2026-04-27 20:58 48.08676 29.19895 28061 ft 459 kts 210°
2026-04-27 20:58 48.05797 29.17818 26600 ft 464 kts 210°
2026-04-27 20:59 48.02934 29.15760 25812 ft 460 kts 210°
2026-04-27 20:59 48.00039 29.13683 24881 ft 461 kts 210°
2026-04-27 20:59 47.97195 29.11643 24082 ft 458 kts 211°
2026-04-27 20:59 47.94355 29.09610 23499 ft 452 kts 211°
2026-04-27 21:00 47.91533 29.07591 22889 ft 448 kts 211°
2026-04-27 21:00 47.88728 29.05587 22254 ft 443 kts 211°
2026-04-27 21:00 47.85997 29.03636 21551 ft 440 kts 211°
2026-04-27 21:00 47.83252 29.01676 20868 ft 437 kts 211°
2026-04-27 21:01 47.80536 28.99741 20215 ft 432 kts 211°
2026-04-27 21:01 47.77826 28.97811 19577 ft 427 kts 211°
2026-04-27 21:01 47.75183 28.95934 18953 ft 423 kts 211°
2026-04-27 21:01 47.72527 28.94049 18307 ft 419 kts 211°
2026-04-27 21:02 47.69938 28.92212 17660 ft 416 kts 211°
2026-04-27 21:02 47.67318 28.90354 17017 ft 413 kts 211°
2026-04-27 21:02 47.64748 28.88534 16408 ft 409 kts 211°
2026-04-27 21:02 47.62211 28.86741 15791 ft 405 kts 211°
2026-04-27 21:03 47.59684 28.84958 15175 ft 401 kts 211°
2026-04-27 21:03 47.57195 28.83232 14558 ft 399 kts 208°
2026-04-27 21:03 47.54498 28.82053 13938 ft 403 kts 195°
2026-04-27 21:03 47.51695 28.81722 13315 ft 407 kts 183°
2026-04-27 21:04 47.48906 28.82021 12695 ft 406 kts 179°
2026-04-27 21:04 47.46092 28.82445 12093 ft 403 kts 178°
2026-04-27 21:04 47.43337 28.82876 11696 ft 393 kts 178°
2026-04-27 21:04 47.40646 28.83286 11324 ft 383 kts 178°
2026-04-27 21:05 47.38049 28.83669 11090 ft 369 kts 178°
2026-04-27 21:05 47.35558 28.84030 10882 ft 357 kts 179°
2026-04-27 21:05 47.33114 28.84377 10681 ft 344 kts 179°
2026-04-27 21:05 47.30797 28.84705 10502 ft 333 kts 179°
2026-04-27 21:06 47.28532 28.85022 10360 ft 320 kts 179°
2026-04-27 21:06 47.26352 28.85327 10214 ft 309 kts 179°
2026-04-27 21:06 47.24244 28.85622 10076 ft 299 kts 179°
2026-04-27 21:06 47.22188 28.85908 9715 ft 298 kts 179°
2026-04-27 21:07 47.20121 28.86193 9356 ft 296 kts 179°
2026-04-27 21:07 47.18093 28.86490 9016 ft 295 kts 175°
2026-04-27 21:07 47.16148 28.87472 8608 ft 300 kts 149°
2026-04-27 21:07 47.14666 28.89585 8266 ft 298 kts 122°
2026-04-27 21:08 47.13930 28.92376 8000 ft 291 kts 98°
2026-04-27 21:08 47.13878 28.95291 7716 ft 284 kts 84°
2026-04-27 21:08 47.13964 28.98140 7418 ft 282 kts 89°
2026-04-27 21:08 47.13806 29.00983 7106 ft 280 kts 99°
2026-04-27 21:09 47.13359 29.03753 6796 ft 278 kts 108°
2026-04-27 21:09 47.12662 29.06391 6498 ft 276 kts 115°
2026-04-27 21:09 47.11762 29.08871 6183 ft 274 kts 122°
2026-04-27 21:09 47.10706 29.11171 5874 ft 270 kts 128°
2026-04-27 21:10 47.09533 29.13267 5571 ft 267 kts 133°
2026-04-27 21:10 47.08249 29.15192 5268 ft 263 kts 138°
2026-04-27 21:10 47.06877 29.16931 4973 ft 257 kts 143°
2026-04-27 21:10 47.05462 29.18452 4684 ft 248 kts 148°
2026-04-27 21:11 47.04014 29.19771 4401 ft 244 kts 152°
2026-04-27 21:11 47.02519 29.20912 4120 ft 241 kts 156°
2026-04-27 21:11 47.00999 29.21874 3873 ft 231 kts 161°
2026-04-27 21:11 46.99545 29.22622 3835 ft 212 kts 165°
2026-04-27 21:12 46.98177 29.23187 3824 ft 203 kts 168°
2026-04-27 21:12 46.96790 29.23623 3820 ft 202 kts 172°
2026-04-27 21:12 46.95398 29.23796 3753 ft 200 kts 194°
2026-04-27 21:12 46.94276 29.22770 3662 ft 194 kts 239°
2026-04-27 21:13 46.93911 29.20912 3556 ft 192 kts 269°
2026-04-27 21:13 46.93892 29.18971 3443 ft 191 kts 268°
2026-04-27 21:13 46.93830 29.17029 3269 ft 193 kts 266°
2026-04-27 21:13 46.93750 29.15061 2942 ft 195 kts 266°
2026-04-27 21:14 46.93662 29.13104 2663 ft 195 kts 266°
2026-04-27 21:14 46.93575 29.11166 2559 ft 183 kts 266°
2026-04-27 21:14 46.93491 29.09347 2356 ft 176 kts 266°
2026-04-27 21:14 46.93410 29.07597 2089 ft 171 kts 266°
2026-04-27 21:15 46.93332 29.05913 1802 ft 161 kts 266°
2026-04-27 21:15 46.93258 29.04317 1534 ft 154 kts 266°
2026-04-27 21:15 46.93189 29.02821 1317 ft 141 kts 266°
2026-04-27 21:15 46.93126 29.01455 1093 ft 130 kts 266°
2026-04-27 21:16 46.93064 29.00144 909 ft 129 kts 266°
2026-04-27 21:16 46.92997 28.98828 730 ft 129 kts 265°
2026-04-27 21:16 46.92901 28.97530 592 ft 129 kts 263°
2026-04-27 21:16 46.92845 28.96236 395 ft 128 kts 267°
2026-04-27 21:17 46.92816 28.94941 285 ft 121 kts 269°
2026-04-27 21:17 46.92795 28.93905 305 ft 76 kts 268°
2026-04-27 21:17 46.92788 28.93492 317 ft 19 kts 272°
2026-04-27 21:17 46.92874 28.93412 319 ft 15 kts
2026-04-27 21:18 46.92984 28.93414 319 ft 16 kts 360°
2026-04-27 21:18 46.93099 28.93431 318 ft 16 kts
2026-04-27 21:18 46.93215 28.93452 317 ft 17 kts
2026-04-27 21:18 46.93343 28.93473 314 ft 19 kts
2026-04-27 21:19 46.93438 28.93435 314 ft 12 kts 309°
2026-04-27 21:19 46.93442 28.93342 317 ft 9 kts 240°
2026-04-27 21:19 46.93438 28.93260 320 ft 6 kts 274°
2026-04-27 21:20 46.93441 28.93161 324 ft 2 kts 216°